TimeCST,TemperatureF,Dew PointF,Humidity,Sea Level PressureIn,VisibilityMPH,Wind Direction,Wind SpeedMPH,Gust SpeedMPH,PrecipitationIn,Events,Conditions,WindDirDegrees,DateUTC
12:15 AM,30.2,23.0,75,30.00,10.0,NW,9.2,-,N/A,,Clear,320,2012-11-30 06:15:00
12:35 AM,35.6,26.6,70,30.01,10.0,NW,8.1,-,N/A,,Clear,310,2012-11-30 06:35:00
12:55 AM,37.4,26.6,65,30.00,10.0,NW,5.8,-,N/A,,Clear,310,2012-11-30 06:55:00
1:15 AM,35.6,24.8,65,30.01,10.0,West,5.8,-,N/A,,Clear,280,2012-11-30 07:15:00
1:35 AM,30.2,21.2,69,30.01,10.0,Calm,Calm,-,N/A,,Clear,0,2012-11-30 07:35:00
1:55 AM,33.8,24.8,70,29.99,10.0,WNW,4.6,-,N/A,,Clear,300,2012-11-30 07:55:00
2:15 AM,30.2,21.2,69,30.00,10.0,Calm,Calm,-,N/A,,Clear,0,2012-11-30 08:15:00
2:35 AM,28.4,21.2,74,30.00,10.0,Calm,Calm,-,N/A,,Clear,0,2012-11-30 08:35:00
2:55 AM,28.4,19.4,69,30.01,10.0,SW,5.8,-,N/A,,Clear,220,2012-11-30 08:55:00
3:15 AM,26.6,21.2,80,30.01,10.0,WSW,4.6,-,N/A,,Clear,240,2012-11-30 09:15:00
3:35 AM,28.4,19.4,69,30.01,10.0,WNW,4.6,-,N/A,,Clear,290,2012-11-30 09:35:00
3:55 AM,28.4,19.4,69,30.00,10.0,NW,5.8,-,N/A,,Clear,320,2012-11-30 09:55:00
4:15 AM,26.6,19.4,74,30.00,10.0,NW,5.8,-,N/A,,Clear,320,2012-11-30 10:15:00
4:35 AM,26.6,19.4,74,30.00,10.0,WNW,4.6,-,N/A,,Clear,300,2012-11-30 10:35:00
4:55 AM,24.8,15.8,69,30.02,10.0,NW,5.8,-,N/A,,Clear,320,2012-11-30 10:55:00
5:15 AM,28.4,19.4,69,30.02,10.0,NW,8.1,-,N/A,,Clear,320,2012-11-30 11:15:00
5:35 AM,28.4,17.6,64,30.02,10.0,North,9.2,-,N/A,,Clear,350,2012-11-30 11:35:00
5:55 AM,28.4,19.4,69,30.03,10.0,NNW,6.9,-,N/A,,Clear,330,2012-11-30 11:55:00
6:15 AM,26.6,17.6,69,30.03,10.0,West,4.6,-,N/A,,Clear,280,2012-11-30 12:15:00
6:35 AM,26.6,17.6,69,30.03,10.0,WNW,5.8,-,N/A,,Clear,300,2012-11-30 12:35:00
6:55 AM,26.6,17.6,69,30.04,10.0,NNW,6.9,-,N/A,,Clear,340,2012-11-30 12:55:00
7:15 AM,28.4,17.6,64,30.05,10.0,North,3.5,-,N/A,,Clear,360,2012-11-30 13:15:00
7:35 AM,28.4,19.4,69,30.05,10.0,Calm,Calm,-,N/A,,Clear,0,2012-11-30 13:35:00
7:55 AM,26.6,17.6,69,30.06,10.0,North,3.5,-,N/A,,Clear,10,2012-11-30 13:55:00
8:15 AM,28.4,19.4,69,30.06,9.0,Calm,Calm,-,N/A,,Clear,0,2012-11-30 14:15:00
8:35 AM,32.0,21.2,64,30.06,7.0,Calm,Calm,-,N/A,,Clear,0,2012-11-30 14:35:00
8:55 AM,33.8,24.8,70,30.06,7.0,NE,4.6,-,N/A,,Clear,50,2012-11-30 14:55:00
9:15 AM,41.0,26.6,57,30.06,10.0,ENE,8.1,-,N/A,,Clear,60,2012-11-30 15:15:00
9:35 AM,42.8,28.4,57,30.06,10.0,ENE,9.2,-,N/A,,Clear,70,2012-11-30 15:35:00
9:55 AM,44.6,28.4,53,30.07,10.0,East,8.1,-,N/A,,Clear,90,2012-11-30 15:55:00
10:15 AM,46.4,28.4,50,30.07,10.0,East,9.2,-,N/A,,Clear,100,2012-11-30 16:15:00
10:35 AM,48.2,28.4,46,30.07,10.0,East,12.7,-,N/A,,Clear,100,2012-11-30 16:35:00
10:55 AM,48.2,28.4,46,30.09,10.0,East,10.4,-,N/A,,Clear,100,2012-11-30 16:55:00
11:15 AM,48.2,26.6,43,30.08,10.0,ESE,8.1,-,N/A,,Clear,120,2012-11-30 17:15:00
11:35 AM,48.2,28.4,46,30.06,10.0,ESE,8.1,-,N/A,,Clear,110,2012-11-30 17:35:00
11:55 AM,50.0,28.4,43,30.06,10.0,East,8.1,-,N/A,,Clear,100,2012-11-30 17:55:00
12:15 PM,51.8,28.4,41,30.04,10.0,ESE,8.1,-,N/A,,Clear,120,2012-11-30 18:15:00
12:35 PM,53.6,28.4,38,30.02,10.0,ESE,9.2,-,N/A,,Clear,110,2012-11-30 18:35:00
12:55 PM,53.6,28.4,38,30.01,10.0,ESE,10.4,-,N/A,,Clear,120,2012-11-30 18:55:00
1:15 PM,53.6,28.4,38,30.00,10.0,ESE,8.1,-,N/A,,Clear,120,2012-11-30 19:15:00
1:35 PM,55.4,30.2,38,29.99,10.0,SE,10.4,-,N/A,,Clear,130,2012-11-30 19:35:00
1:55 PM,57.2,30.2,36,29.98,10.0,ESE,8.1,-,N/A,,Clear,120,2012-11-30 19:55:00
2:15 PM,57.2,30.2,36,29.96,10.0,ESE,10.4,-,N/A,,Clear,110,2012-11-30 20:15:00
2:35 PM,60.8,30.2,31,29.95,10.0,ESE,11.5,-,N/A,,Clear,110,2012-11-30 20:35:00
2:55 PM,60.8,30.2,31,29.94,10.0,ESE,11.5,-,N/A,,Clear,110,2012-11-30 20:55:00
3:15 PM,60.8,30.2,31,29.94,10.0,ESE,10.4,-,N/A,,Clear,110,2012-11-30 21:15:00
3:35 PM,60.8,30.2,31,29.95,10.0,SE,10.4,-,N/A,,Clear,140,2012-11-30 21:35:00
3:55 PM,60.8,28.4,29,29.94,10.0,SE,11.5,-,N/A,,Clear,130,2012-11-30 21:55:00
4:15 PM,59.0,30.2,34,29.94,10.0,ESE,10.4,-,N/A,,Clear,120,2012-11-30 22:15:00
4:35 PM,57.2,28.4,33,29.94,10.0,ESE,9.2,-,N/A,,Clear,120,2012-11-30 22:35:00
4:55 PM,53.6,28.4,38,29.94,10.0,ESE,8.1,-,N/A,,Clear,120,2012-11-30 22:55:00
5:15 PM,51.8,28.4,41,29.94,10.0,East,6.9,-,N/A,,Clear,100,2012-11-30 23:15:00
5:35 PM,48.2,28.4,46,29.93,10.0,ESE,9.2,-,N/A,,Clear,110,2012-11-30 23:35:00
5:55 PM,48.2,28.4,46,29.93,10.0,ESE,10.4,-,N/A,,Clear,110,2012-11-30 23:55:00
6:15 PM,46.4,30.2,53,29.94,10.0,ESE,9.2,-,N/A,,Clear,110,2012-12-01 00:15:00
6:35 PM,44.6,28.4,53,29.95,10.0,ESE,8.1,-,N/A,,Clear,120,2012-12-01 00:35:00
7:15 PM,42.8,28.4,57,29.94,10.0,SE,6.9,-,N/A,,Clear,130,2012-12-01 01:15:00
7:35 PM,42.8,30.2,61,29.93,10.0,ESE,8.1,-,N/A,,Clear,120,2012-12-01 01:35:00
7:55 PM,41.0,28.4,61,29.93,10.0,ESE,8.1,-,N/A,,Clear,120,2012-12-01 01:55:00
8:15 PM,39.2,28.4,65,29.93,10.0,SE,6.9,-,N/A,,Clear,130,2012-12-01 02:15:00
8:35 PM,39.2,30.2,70,29.92,10.0,SE,8.1,-,N/A,,Clear,130,2012-12-01 02:35:00
8:55 PM,39.2,32.0,75,29.91,10.0,SE,9.2,-,N/A,,Clear,130,2012-12-01 02:55:00
9:15 PM,41.0,33.8,76,29.90,10.0,SE,6.9,-,N/A,,Clear,130,2012-12-01 03:15:00
9:35 PM,39.2,33.8,81,29.90,10.0,ESE,5.8,-,N/A,,Clear,110,2012-12-01 03:35:00
9:55 PM,39.2,33.8,81,29.90,10.0,SE,6.9,-,N/A,,Clear,130,2012-12-01 03:55:00
10:15 PM,37.4,33.8,87,29.89,9.0,SSE,4.6,-,N/A,,Clear,150,2012-12-01 04:15:00
10:35 PM,37.4,33.8,87,29.89,8.0,SSE,3.5,-,N/A,,Clear,160,2012-12-01 04:35:00
10:55 PM,37.4,33.8,87,29.89,8.0,South,4.6,-,N/A,,Clear,170,2012-12-01 04:55:00
11:15 PM,39.2,35.6,87,29.88,7.0,South,5.8,-,N/A,,Clear,180,2012-12-01 05:15:00
11:35 PM,37.4,33.8,87,29.88,5.0,South,5.8,-,N/A,,Clear,180,2012-12-01 05:35:00
11:55 PM,39.2,37.4,93,29.87,4.0,SSE,6.9,-,N/A,,Clear,160,2012-12-01 05:55:00